Regional Weather Roundup
Issued by NWS

Home | Current Version | Previous Version | Graphics & Text | Print | Product List | Glossary On
Versions: 1 2 3 4 5 6 7 8 9 10 11 12 13 14 15 16 17 18 19 20 21 22 23 24 25 26 27 28 29 30 31 32 33 34 35 36 37 38 39 40 41 42 43 44 45 46 47 48 49 50
000
ASUS43 KLSX 021807
RWRMO

WEATHER SUMMARY FOR MISSOURI
NATIONAL WEATHER SERVICE SPRINGFIELD MO
100 PM CDT TUE SEP 02 2014

NOTE: "FAIR" INDICATES FEW OR NO CLOUDS BELOW 12,000 FEET WITH NO
       SIGNIFICANT WEATHER AND/OR OBSTRUCTIONS TO VISIBILITY.
       CURRENT SKY AND/OR WEATHER CONDITIONS ARE NOT AVAILABLE FOR
       CHILLICOTHE AND FARMINGTON.

MOZ001>031-035>038-043-044-053-054-021900-
...NORTHERN AND WESTERN MISSOURI...

CITY           SKY/WX    TMP DP  RH WIND       PRES   REMARKS
KANSAS CTY INT PTSUNNY   79  69  71 SE6       30.02R
6HR MIN TEMP:  63; 6HR MAX TEMP:  79;

KANSAS C DTWN  PTSUNNY   80  68  66 S5        30.01R
6HR MIN TEMP:  70; 6HR MAX TEMP:  80;

LEE`S SUMMIT   PTSUNNY   77  67  71 VRB6      30.03R
6HR MIN TEMP:  69; 6HR MAX TEMP:  77;

ST JOSEPH      SUNNY     80  63  55 W5        30.00F
6HR MIN TEMP:  60; 6HR MAX TEMP:  80;

CHILLICOTHE      N/A     79  65  62 CALM      30.00S
6HR MIN TEMP:  63; 6HR MAX TEMP:  80;

KIRKSVILLE     MOSUNNY   80  64  58 W7        30.00R
6HR MIN TEMP:  66; 6HR MAX TEMP:  80;


$$
MOZ066>068-077>081-088>096-101>105-021900-
...SOUTHWEST MISSOURI...

CITY           SKY/WX    TMP DP  RH WIND       PRES   REMARKS
SPRINGFIELD    CLOUDY    70  65  84 W7        30.05R
6HR MIN TEMP:  67; 6HR MAX TEMP:  70; 6HR PCP:  0.23;

JOPLIN         CLOUDY    70  67  90 SW9       30.06F
6HR MIN TEMP:  67; 6HR MAX TEMP:  70; 6HR PCP:  0.05;


$$
MOZ032>034-039>042-045>050-055>058-069>072-021900-
...CENTRAL MISSOURI...

CITY           SKY/WX    TMP DP  RH WIND       PRES   REMARKS
COLUMBIA       CLOUDY    79  70  74 SW8       30.03R
6HR MIN TEMP:  69; 6HR MAX TEMP:  79;

JEFFERSON CITY CLOUDY    77  70  79 SW8       30.02R
6HR MIN TEMP:  71; 6HR MAX TEMP:  77;

ROLLA          CLOUDY    71  66  84 W12G22    30.04R
SEDALIA        CLOUDY    75  70  84 SW10      30.04R
6HR MIN TEMP:  71; 6HR MAX TEMP:  77;

WHITEMAN AFB   PTSUNNY   74  71  90 S13       30.02R
OSAGE BEACH    CLOUDY    75  64  69 W8        30.04F

$$
MOZ051-052-059>065-021900-
...EAST CENTRAL MISSOURI...

CITY           SKY/WX    TMP DP  RH WIND       PRES   REMARKS
ST LOUIS INTL  CLOUDY    80  70  71 W8        29.99R
6HR MIN TEMP:  71; 6HR MAX TEMP:  80; 6HR PCP: TRACE;

SPIRIT OF STL  CLOUDY    77  72  83 W6        29.99R
6HR MIN TEMP:  70; 6HR MAX TEMP:  77;

ST CHARLES     CLOUDY    78  69  73 W9        29.98R
6HR MIN TEMP:  70; 6HR MAX TEMP:  78;


$$
MOZ072>076-082>087-097>100-106>115-021900-
...SOUTH CENTRAL AND SOUTHEAST MISSOURI...

CITY           SKY/WX    TMP DP  RH WIND       PRES   REMARKS
CAPE GIRARDEAU CLOUDY    81  68  64 W7        29.99R
6HR MIN TEMP:  76; 6HR MAX TEMP:  83;

FARMINGTON     CLOUDY    75  66  73 W7        30.04R
6HR MIN TEMP:  72; 6HR MAX TEMP:  75;

POPLAR BLUFF   CLOUDY    80  65  59 W8        30.00R
6HR MIN TEMP:  72; 6HR MAX TEMP:  80; 6HR PCP:  0.02;

WEST PLAINS    CLOUDY    70  66  87 W8        30.08S
6HR MIN TEMP:  67; 6HR MAX TEMP:  71; 6HR PCP:  0.15;


$$



USA.gov is the U.S. government's official web portal to all federal, state and local government web resources and services.